Tracking 29892 objects as of 21-Nov-2024
HD Live streaming from Space Station
objects crossing your sky now

INTELSAT 4-F3

Track INTELSAT 4-F3 now!
INTELSAT 4-F3 is classified as:


NORAD ID: 5709
Int'l Code: 1971-116A
Perigee: 35,938.0 km
Apogee: 36,016.0 km
Inclination: 7.8 °
Period: 1,445.5 minutes
Semi major axis: 42347 km
RCS: 2.3186 m2 (large)
Launch date: December 20, 1971
Source: International Telecommunications Satellite Organization (ITSO)
Launch site: AIR FORCE EASTERN TEST RANGE (AFETR)
Your satellite tracking list
Your tracking list is empty




NASA's NSSDC Master Catalog

Two Line Element Set (TLE):
1  5709U 71116A   24326.01624715  .00000078  00000-0  00000+0 0  9994
2  5709   7.7828 296.2040 0009205 110.9628  50.6526  0.99621686113197
Source of the keplerian elements: AFSPC